• en Suisse
  • Liste des pays
  • À 7 jours
  • Température de l'eau
  • Carte satellitaire
  • Carte météo
  • Widgets météo
  • user-avatar
    Se connecter

    Météo par heure à Shevali-Maydany

    Ce jour, 25 Septembre, Mardi

    Heure Température Précipitation Vent Pression Humidité
    00:00 +10°C° 0.4 mm 6 m/s 744 mmHg 74%
    01:00 +10°C° 0.4 mm 6 m/s 744 mmHg 77%
    02:00 +10°C° 0.4 mm 6 m/s 743 mmHg 80%
    03:00 +9°C° 0.4 mm 7 m/s 742 mmHg 83%
    04:00 +9°C° 0.3 mm 6 m/s 742 mmHg 84%
    05:00 +9°C° 0.3 mm 6 m/s 742 mmHg 84%
    06:00 +9°C° 0.3 mm 6 m/s 741 mmHg 85%
    07:00 +9°C° 0.3 mm 6 m/s 741 mmHg 85%
    08:00 +9°C° 0.3 mm 5 m/s 741 mmHg 85%
    09:00 +9°C° 0.3 mm 5 m/s 741 mmHg 86%
    10:00 +10°C° 0.1 mm 5 m/s 742 mmHg 81%
    11:00 +10°C° 0.1 mm 5 m/s 742 mmHg 77%
    12:00 +10°C° 0.1 mm 5 m/s 742 mmHg 72%
    13:00 +10°C° 0 mm 5 m/s 742 mmHg 71%
    14:00 +12°C° 0 mm 5 m/s 743 mmHg 69%
    15:00 +12°C° 0 mm 5 m/s 743 mmHg 67%
    16:00 +10°C° 0 mm 5 m/s 743 mmHg 69%
    17:00 +10°C° 0 mm 5 m/s 744 mmHg 70%
    18:00 +9°C° 0 mm 5 m/s 744 mmHg 72%
    19:00 +8°C° 0 mm 4 m/s 745 mmHg 74%
    20:00 +7°C° 0 mm 4 m/s 745 mmHg 77%
    21:00 +7°C° 0 mm 4 m/s 746 mmHg 79%
    22:00 +7°C° 0 mm 4 m/s 746 mmHg 80%
    23:00 +7°C° 0 mm 4 m/s 747 mmHg 80%

    Demain, 26 Septembre, Mercredi

    Heure Température Précipitation Vent Pression Humidité
    00:00 +7°C° 0 mm 5 m/s 747 mmHg 81%
    01:00 +7°C° 0 mm 5 m/s 748 mmHg 81%
    02:00 +7°C° 0 mm 5 m/s 748 mmHg 80%
    03:00 +7°C° 0 mm 5 m/s 749 mmHg 80%
    04:00 +7°C° 0.1 mm 5 m/s 749 mmHg 81%
    05:00 +6°C° 0.1 mm 5 m/s 750 mmHg 81%
    06:00 +6°C° 0.1 mm 5 m/s 750 mmHg 82%
    07:00 +6°C° 0.1 mm 5 m/s 751 mmHg 81%
    08:00 +6°C° 0.1 mm 5 m/s 752 mmHg 80%
    09:00 +6°C° 0.1 mm 5 m/s 752 mmHg 79%
    10:00 +6°C° 0 mm 5 m/s 753 mmHg 78%
    11:00 +7°C° 0 mm 4 m/s 754 mmHg 76%
    12:00 +7°C° 0 mm 4 m/s 754 mmHg 74%
    13:00 +7°C° 0 mm 4 m/s 754 mmHg 72%
    14:00 +7°C° 0 mm 4 m/s 755 mmHg 71%
    15:00 +7°C° 0 mm 4 m/s 755 mmHg 69%
    16:00 +8°C° 0 mm 3 m/s 755 mmHg 69%
    17:00 +8°C° 0 mm 3 m/s 755 mmHg 68%
    18:00 +7°C° 0 mm 3 m/s 756 mmHg 67%
    19:00 +7°C° 0 mm 3 m/s 756 mmHg 68%
    20:00 +7°C° 0 mm 3 m/s 756 mmHg 69%
    21:00 +5°C° 0 mm 3 m/s 756 mmHg 69%
    22:00 +5°C° 0 mm 3 m/s 755 mmHg 71%
    23:00 +4°C° 0 mm 3 m/s 755 mmHg 73%

    Après-demain, 27 Septembre, Jeudi

    Heure Température Précipitation Vent Pression Humidité
    00:00 +4°C° 0 mm 4 m/s 755 mmHg 75%
    01:00 +4°C° 0 mm 4 m/s 754 mmHg 75%
    02:00 +3°C° 0 mm 4 m/s 753 mmHg 74%
    03:00 +3°C° 0 mm 4 m/s 753 mmHg 74%
    04:00 +3°C° 0 mm 5 m/s 752 mmHg 72%
    05:00 +3°C° 0 mm 6 m/s 751 mmHg 69%
    06:00 +4°C° 0 mm 6 m/s 750 mmHg 67%
    07:00 +4°C° 0.3 mm 7 m/s 750 mmHg 68%
    08:00 +4°C° 0.3 mm 8 m/s 749 mmHg 68%
    09:00 +5°C° 0.3 mm 8 m/s 748 mmHg 69%
    10:00 +4°C° 1.2 mm 8 m/s 747 mmHg 73%
    11:00 +3°C° 1.2 mm 9 m/s 747 mmHg 77%
    12:00 +3°C° 1.2 mm 9 m/s 746 mmHg 82%
    13:00 +5°C° 0.6 mm 8 m/s 746 mmHg 83%
    14:00 +5°C° 0.6 mm 8 m/s 745 mmHg 85%
    15:00 +5°C° 0.6 mm 7 m/s 745 mmHg 87%
    16:00 +6°C° 0.5 mm 7 m/s 745 mmHg 87%
    17:00 +6°C° 0.5 mm 7 m/s 745 mmHg 88%
    18:00 +7°C° 0.5 mm 6 m/s 745 mmHg 88%
    19:00 +7°C° 0.4 mm 5 m/s 745 mmHg 87%
    20:00 +7°C° 0.4 mm 5 m/s 746 mmHg 86%
    21:00 +7°C° 0.4 mm 4 m/s 746 mmHg 85%
    22:00 +6°C° 0 mm 4 m/s 747 mmHg 86%
    23:00 +5°C° 0 mm 4 m/s 747 mmHg 87%

    28 Septembre, Vendredi

    Heure Température Précipitation Vent Pression Humidité
    00:00 +5°C° 0 mm 4 m/s 747 mmHg 88%
    01:00 +5°C° 0 mm 4 m/s 748 mmHg 88%
    02:00 +4°C° 0 mm 4 m/s 748 mmHg 89%
    03:00 +4°C° 0 mm 4 m/s 749 mmHg 89%
    04:00 +4°C° 0 mm 4 m/s 749 mmHg 90%
    05:00 +4°C° 0 mm 4 m/s 749 mmHg 90%
    06:00 +3°C° 0 mm 4 m/s 749 mmHg 91%
    07:00 +5°C° 0 mm 4 m/s 749 mmHg 86%
    08:00 +6°C° 0 mm 4 m/s 749 mmHg 81%
    09:00 +7°C° 0 mm 4 m/s 750 mmHg 76%
    10:00 +9°C° 0 mm 5 m/s 749 mmHg 68%
    11:00 +10°C° 0 mm 6 m/s 749 mmHg 60%
    12:00 +13°C° 0 mm 6 m/s 749 mmHg 52%
    13:00 +12°C° 0 mm 7 m/s 748 mmHg 52%
    14:00 +13°C° 0 mm 8 m/s 747 mmHg 52%
    15:00 +15°C° 0 mm 8 m/s 746 mmHg 52%
    16:00 +13°C° 0.1 mm 8 m/s 746 mmHg 61%
    17:00 +13°C° 0.1 mm 8 m/s 745 mmHg 69%
    18:00 +12°C° 0.1 mm 7 m/s 745 mmHg 78%
    19:00 +12°C° 0.3 mm 7 m/s 744 mmHg 79%
    20:00 +12°C° 0.3 mm 8 m/s 744 mmHg 80%
    21:00 +12°C° 0.3 mm 8 m/s 743 mmHg 82%
    22:00 +12°C° 0.4 mm 8 m/s 743 mmHg 83%
    23:00 +12°C° 0.4 mm 7 m/s 743 mmHg 84%

    29 Septembre, Samedi

    Heure Température Précipitation Vent Pression Humidité
    00:00 +12°C° 0.4 mm 7 m/s 743 mmHg 86%
    01:00 +11°C° 0.2 mm 6 m/s 744 mmHg 86%
    02:00 +9°C° 0.2 mm 6 m/s 745 mmHg 86%
    03:00 +8°C° 0.2 mm 5 m/s 747 mmHg 85%
    04:00 +6°C° 0 mm 4 m/s 748 mmHg 87%
    05:00 +5°C° 0 mm 3 m/s 749 mmHg 88%
    06:00 +4°C° 0 mm 3 m/s 750 mmHg 89%
    07:00 +4°C° 0 mm 3 m/s 750 mmHg 83%
    08:00 +5°C° 0 mm 3 m/s 751 mmHg 77%
    09:00 +5°C° 0 mm 3 m/s 752 mmHg 71%
    10:00 +7°C° 0 mm 3 m/s 752 mmHg 63%
    11:00 +8°C° 0 mm 3 m/s 753 mmHg 54%
    12:00 +9°C° 0 mm 2 m/s 753 mmHg 46%
    13:00 +9°C° 0 mm 2 m/s 753 mmHg 44%
    14:00 +10°C° 0 mm 2 m/s 753 mmHg 42%
    15:00 +10°C° 0 mm 2 m/s 753 mmHg 41%
    16:00 +9°C° 0 mm 2 m/s 754 mmHg 45%
    17:00 +8°C° 0 mm 2 m/s 754 mmHg 49%
    18:00 +8°C° 0 mm 1 m/s 754 mmHg 53%
    19:00 +7°C° 0 mm 2 m/s 755 mmHg 55%
    20:00 +6°C° 0 mm 2 m/s 755 mmHg 57%
    21:00 +6°C° 0 mm 2 m/s 756 mmHg 59%
    22:00 +5°C° 0 mm 2 m/s 756 mmHg 62%
    23:00 +5°C° 0 mm 2 m/s 756 mmHg 65%

    30 Septembre, Dimanche

    Heure Température Précipitation Vent Pression Humidité
    00:00 +4°C° 0 mm 2 m/s 756 mmHg 68%
    01:00 +4°C° 0 mm 2 m/s 757 mmHg 71%
    02:00 +3°C° 0 mm 2 m/s 757 mmHg 73%
    03:00 +3°C° 0 mm 2 m/s 757 mmHg 76%
    04:00 +2°C° 0 mm 2 m/s 758 mmHg 76%
    05:00 +2°C° 0 mm 2 m/s 758 mmHg 77%
    06:00 +2°C° 0 mm 2 m/s 758 mmHg 77%
    07:00 +3°C° 0 mm 2 m/s 759 mmHg 69%
    08:00 +4°C° 0 mm 2 m/s 759 mmHg 61%
    09:00 +6°C° 0 mm 2 m/s 759 mmHg 52%
    10:00 +7°C° 0 mm 2 m/s 760 mmHg 48%
    11:00 +8°C° 0 mm 2 m/s 760 mmHg 44%
    12:00 +9°C° 0 mm 2 m/s 760 mmHg 40%
    13:00 +9°C° 0 mm 2 m/s 760 mmHg 39%
    14:00 +9°C° 0 mm 2 m/s 760 mmHg 39%
    15:00 +9°C° 0 mm 2 m/s 760 mmHg 38%
    16:00 +9°C° 0 mm 1 m/s 760 mmHg 44%
    17:00 +7°C° 0 mm 1 m/s 760 mmHg 49%
    18:00 +5°C° 0 mm 0 m/s 760 mmHg 54%
    19:00 +5°C° 0 mm 1 m/s 760 mmHg 56%
    20:00 +5°C° 0 mm 1 m/s 760 mmHg 57%
    21:00 +4°C° 0 mm 1 m/s 760 mmHg 59%
    22:00 +4°C° 0 mm 1 m/s 760 mmHg 61%
    23:00 +4°C° 0 mm 1 m/s 760 mmHg 63%
    Voir plus